• In Italy
  • List of Countries
  • For 7 days
  • Water Temperature
  • Satellite Maps
  • Weather Map
  • Weather Widgets
  • user-avatar
    Login

    Hourly Weather Sidi Bu-l-Abbas

    Today, 17 January, Wednesday

    Time Temperature Precipitation Wind Pressure Humidity
    00:00 +10°C° 0 mm 2 mps 726 mmHg 55%
    01:00 +9°C° 0 mm 2 mps 725 mmHg 54%
    02:00 +9°C° 0 mm 2 mps 725 mmHg 54%
    03:00 +9°C° 0 mm 2 mps 725 mmHg 53%
    04:00 +9°C° 0 mm 2 mps 725 mmHg 53%
    05:00 +8°C° 0 mm 2 mps 724 mmHg 52%
    06:00 +8°C° 0 mm 2 mps 724 mmHg 51%
    07:00 +10°C° 0 mm 2 mps 724 mmHg 47%
    08:00 +12°C° 0 mm 2 mps 724 mmHg 43%
    09:00 +14°C° 0 mm 2 mps 725 mmHg 40%
    10:00 +16°C° 0 mm 1 mps 725 mmHg 35%
    11:00 +19°C° 0 mm 1 mps 725 mmHg 30%
    12:00 +20°C° 0 mm 1 mps 725 mmHg 25%
    13:00 +20°C° 0 mm 1 mps 725 mmHg 25%
    14:00 +20°C° 0 mm 2 mps 724 mmHg 25%
    15:00 +20°C° 0 mm 2 mps 724 mmHg 26%
    16:00 +18°C° 0 mm 2 mps 724 mmHg 32%
    17:00 +16°C° 0 mm 2 mps 724 mmHg 38%
    18:00 +14°C° 0 mm 2 mps 723 mmHg 44%
    19:00 +13°C° 0 mm 2 mps 724 mmHg 45%
    20:00 +12°C° 0 mm 2 mps 724 mmHg 47%
    21:00 +12°C° 0 mm 2 mps 724 mmHg 48%
    22:00 +12°C° 0 mm 2 mps 724 mmHg 48%
    23:00 +10°C° 0 mm 2 mps 724 mmHg 48%

    Tomorrow, 18 January, Thursday

    Time Temperature Precipitation Wind Pressure Humidity
    00:00 +10°C° 0 mm 2 mps 723 mmHg 48%
    01:00 +10°C° 0 mm 2 mps 723 mmHg 48%
    02:00 +9°C° 0 mm 2 mps 723 mmHg 48%
    03:00 +9°C° 0 mm 2 mps 723 mmHg 48%
    04:00 +9°C° 0 mm 2 mps 723 mmHg 48%
    05:00 +9°C° 0 mm 2 mps 723 mmHg 48%
    06:00 +9°C° 0 mm 2 mps 723 mmHg 48%
    07:00 +10°C° 0 mm 2 mps 723 mmHg 45%
    08:00 +11°C° 0 mm 3 mps 723 mmHg 42%
    09:00 +13°C° 0 mm 3 mps 724 mmHg 39%
    10:00 +16°C° 0 mm 3 mps 724 mmHg 34%
    11:00 +18°C° 0 mm 3 mps 724 mmHg 29%
    12:00 +19°C° 0 mm 3 mps 723 mmHg 24%
    13:00 +20°C° 0 mm 3 mps 723 mmHg 23%
    14:00 +20°C° 0 mm 3 mps 722 mmHg 23%
    15:00 +21°C° 0 mm 3 mps 722 mmHg 23%
    16:00 +19°C° 0 mm 3 mps 721 mmHg 29%
    17:00 +17°C° 0 mm 3 mps 721 mmHg 36%
    18:00 +14°C° 0 mm 3 mps 721 mmHg 42%
    19:00 +13°C° 0 mm 3 mps 721 mmHg 42%
    20:00 +13°C° 0 mm 3 mps 721 mmHg 43%
    21:00 +13°C° 0 mm 3 mps 721 mmHg 43%
    22:00 +14°C° 0 mm 2 mps 721 mmHg 44%
    23:00 +14°C° 0 mm 2 mps 721 mmHg 45%

    Day after tomorrow, 19 January, Friday

    Time Temperature Precipitation Wind Pressure Humidity
    00:00 +13°C° 0 mm 2 mps 720 mmHg 46%
    01:00 +13°C° 0 mm 2 mps 720 mmHg 47%
    02:00 +13°C° 0 mm 2 mps 720 mmHg 48%
    03:00 +12°C° 0 mm 1 mps 720 mmHg 49%
    04:00 +12°C° 0 mm 1 mps 719 mmHg 51%
    05:00 +12°C° 0 mm 1 mps 719 mmHg 53%
    06:00 +12°C° 0 mm 1 mps 719 mmHg 55%
    07:00 +12°C° 0 mm 1 mps 720 mmHg 55%
    08:00 +13°C° 0 mm 1 mps 720 mmHg 55%
    09:00 +13°C° 0 mm 1 mps 720 mmHg 56%
    10:00 +14°C° 0 mm 2 mps 720 mmHg 57%
    11:00 +13°C° 0 mm 3 mps 720 mmHg 59%
    12:00 +14°C° 0 mm 4 mps 720 mmHg 61%
    13:00 +13°C° 0.1 mm 4 mps 720 mmHg 66%
    14:00 +13°C° 0.1 mm 4 mps 720 mmHg 71%
    15:00 +13°C° 0.1 mm 5 mps 720 mmHg 77%
    16:00 +12°C° 0.1 mm 4 mps 720 mmHg 80%
    17:00 +12°C° 0.1 mm 4 mps 721 mmHg 84%
    18:00 +11°C° 0.1 mm 3 mps 722 mmHg 88%
    19:00 +11°C° 0.1 mm 4 mps 722 mmHg 89%
    20:00 +11°C° 0.1 mm 4 mps 723 mmHg 89%
    21:00 +11°C° 0.1 mm 4 mps 723 mmHg 90%
    22:00 +10°C° 0.1 mm 4 mps 724 mmHg 90%
    23:00 +10°C° 0.1 mm 4 mps 724 mmHg 90%

    20 January, Saturday

    Time Temperature Precipitation Wind Pressure Humidity
    00:00 +10°C° 0.1 mm 3 mps 724 mmHg 91%
    01:00 +10°C° 0.1 mm 3 mps 724 mmHg 91%
    02:00 +10°C° 0.1 mm 3 mps 724 mmHg 91%
    03:00 +9°C° 0.1 mm 3 mps 724 mmHg 91%
    04:00 +9°C° 0 mm 3 mps 724 mmHg 91%
    05:00 +9°C° 0 mm 3 mps 725 mmHg 91%
    06:00 +8°C° 0 mm 3 mps 725 mmHg 91%
    07:00 +9°C° 0 mm 3 mps 726 mmHg 85%
    08:00 +10°C° 0 mm 3 mps 726 mmHg 79%
    09:00 +11°C° 0 mm 3 mps 727 mmHg 74%
    10:00 +12°C° 0 mm 3 mps 727 mmHg 69%
    11:00 +13°C° 0 mm 4 mps 727 mmHg 65%
    12:00 +14°C° 0 mm 5 mps 727 mmHg 61%
    13:00 +14°C° 0 mm 5 mps 727 mmHg 59%
    14:00 +14°C° 0 mm 5 mps 726 mmHg 58%
    15:00 +14°C° 0 mm 5 mps 726 mmHg 56%
    16:00 +13°C° 0 mm 4 mps 726 mmHg 63%
    17:00 +12°C° 0 mm 3 mps 726 mmHg 70%
    18:00 +12°C° 0 mm 2 mps 726 mmHg 77%
    19:00 +10°C° 0 mm 2 mps 726 mmHg 78%
    20:00 +10°C° 0 mm 2 mps 727 mmHg 78%
    21:00 +10°C° 0 mm 2 mps 727 mmHg 79%
    22:00 +10°C° 0 mm 2 mps 727 mmHg 76%
    23:00 +9°C° 0 mm 2 mps 727 mmHg 73%

    21 January, Sunday

    Time Temperature Precipitation Wind Pressure Humidity
    00:00 +9°C° 0 mm 2 mps 727 mmHg 70%
    01:00 +9°C° 0 mm 2 mps 727 mmHg 68%
    02:00 +9°C° 0 mm 2 mps 727 mmHg 66%
    03:00 +9°C° 0 mm 2 mps 727 mmHg 64%
    04:00 +9°C° 0 mm 2 mps 727 mmHg 61%
    05:00 +9°C° 0 mm 2 mps 727 mmHg 59%
    06:00 +8°C° 0 mm 2 mps 727 mmHg 56%
    07:00 +10°C° 0 mm 2 mps 727 mmHg 52%
    08:00 +12°C° 0 mm 2 mps 728 mmHg 47%
    09:00 +14°C° 0 mm 2 mps 728 mmHg 43%
    10:00 +14°C° 0 mm 3 mps 729 mmHg 41%
    11:00 +17°C° 0 mm 3 mps 729 mmHg 39%
    12:00 +18°C° 0 mm 3 mps 729 mmHg 36%
    13:00 +18°C° 0 mm 4 mps 728 mmHg 37%
    14:00 +18°C° 0 mm 4 mps 728 mmHg 38%
    15:00 +18°C° 0 mm 4 mps 728 mmHg 39%
    16:00 +16°C° 0 mm 3 mps 728 mmHg 45%
    17:00 +15°C° 0 mm 2 mps 728 mmHg 51%
    18:00 +13°C° 0 mm 1 mps 728 mmHg 57%
    19:00 +12°C° 0 mm 1 mps 728 mmHg 58%
    20:00 +12°C° 0 mm 1 mps 729 mmHg 60%
    21:00 +10°C° 0 mm 0 mps 729 mmHg 61%
    22:00 +11°C° 0 mm 1 mps 729 mmHg 61%
    23:00 +11°C° 0 mm 1 mps 729 mmHg 60%

    22 January, Monday

    Time Temperature Precipitation Wind Pressure Humidity
    00:00 +10°C° 0 mm 1 mps 729 mmHg 60%
    01:00 +10°C° 0 mm 1 mps 729 mmHg 60%
    02:00 +10°C° 0 mm 1 mps 728 mmHg 60%
    03:00 +10°C° 0 mm 1 mps 728 mmHg 60%
    04:00 +10°C° 0 mm 1 mps 728 mmHg 60%
    05:00 +10°C° 0 mm 1 mps 728 mmHg 61%
    06:00 +9°C° 0 mm 1 mps 728 mmHg 62%
    07:00 +11°C° 0 mm 1 mps 729 mmHg 56%
    08:00 +13°C° 0 mm 1 mps 729 mmHg 51%
    09:00 +15°C° 0 mm 1 mps 730 mmHg 46%
    10:00 +18°C° 0 mm 1 mps 730 mmHg 42%
    11:00 +19°C° 0 mm 1 mps 730 mmHg 38%
    12:00 +20°C° 0 mm 1 mps 730 mmHg 35%
    13:00 +20°C° 0 mm 1 mps 729 mmHg 34%
    14:00 +21°C° 0 mm 1 mps 729 mmHg 34%
    15:00 +20°C° 0 mm 2 mps 728 mmHg 33%
    16:00 +19°C° 0 mm 1 mps 728 mmHg 39%
    17:00 +16°C° 0 mm 1 mps 728 mmHg 45%
    18:00 +14°C° 0 mm 1 mps 728 mmHg 52%
    19:00 +14°C° 0 mm 1 mps 728 mmHg 54%
    20:00 +13°C° 0 mm 1 mps 728 mmHg 56%
    21:00 +11°C° 0 mm 0 mps 728 mmHg 58%
    22:00 +11°C° 0 mm 0 mps 728 mmHg 58%
    23:00 +11°C° 0 mm 0 mps 728 mmHg 59%
    Show more